THORAD AGENA D DEB, 4741

Orbit data source: Space-Track

THORAD AGENA D DEB, 4741 is space debris in LEO originally from a launch on Wed, 08 Apr 1970 UTC launched from the Air Force Western Test Range (AFWTR). Debris objects in space refer to the collection of defunct objects orbiting the Earth. Examples of debris include non-operational satellites, rocket bodies, and fragments generated from explosions, collisions, or faulty payload assembly.

Loading next visibility...
Identifier
4741, 1970-025CQ
Orbit
LEO
Country
Flag of USUS
Related business
Manufacturer
Unknown
Mission
Spacecraft
Bus & Motor
Unknown
Mass
Unknown
Launch date (UTC)
1970-04-08 (56 years ago)
Launch vehicle
Unknown
Launch site
Air Force Western Test Range (AFWTR)
Object type
Payload
Rocket body
Debris
Shape & HBR
Unknown shape, 0.1 m
Radar Cross Section
Small (<0.1 m²)

Expand to show TLE details & history
Last TLE update: 18 hours ago

TLE from 18 hours ago
0 THORAD AGENA D DEB
1 04741U 70025CQ  25300.84498769  .00000525  00000-0  30590-2 0  9996
2 04741 100.2801  78.0495 0786178 319.6773 202.0384 11.94637277421458
Epoch: 2025-10-27T20:16Z
TLE epoch observation values (Epoch: 2025-10-27T20:16:46.936Z)
Latitude
21.02579°
Longitude
-78.60705°
Altitude
2,302.683 km
Speed
6.524 km/s
True Right ascension
17h 28m 07s
True Declination
20° 55' 53"
Sunlit
Object was in daylight at epoch
Visualization orbit readout
Latitude
Unknown
Longitude
Unknown
Altitude
Unknown
Speed
Unknown
Apparent Right ascension
Unknown
Apparent Declination
Unknown
Sunlit
N/A
Visualization observer readout
Local Sidereal Time
09:50:38
Azimuth
Unknown
Elevation
Unknown
Doppler factor
Unknown
Orbital elements
Apogee altitude
2,337.759 km
Perigee altitude
1,067.198 km
Semi-major axis
8,080.616 km
Eccentricity
0.07862
Inclination
100.2801°
RAAN
78.0495°
Arg. of periapsis
319.6773°
True anomaly
198.94252°
Mean anomaly
202.0384°
Eccentric anomaly
200.46358°
Mean motion
2.98797 °/min
Orbital period
120.48 mins
BSTAR
0.003059
Loading maneuver chart data...
Computing Atmospheric mass density...

Documentation

Showing up to 5 results
|